Wind_Speed
6 5 4 3 2 4 7 5 6 5 6 16 14 10 16 17 10 10 9 11 10 10 9 6 6 7 8 9 9 10 11 12 11 10 10 11 11 11 10 10 10 9 8 6 6 7 8 8 9
7 6 5 4 6 11 9 6 5 6 9 13 13 10 11 12 15 12 14 13 8 4 4 6 8 10 13 15 16 16 16 15 14 12 12 11 11 10 10 10 10 10 8 8 7 7 8 8 9
7 7 5 5 8 10 8 7 7 12 10 12 10 12 14 15 14 13 15 11 9 6 7 8 9 12 14 15 14 15 18 20 19 15 13 12 13 13 12 10 10 9 9 9 8 8 8 8 9
7 6 6 7 7 7 7 10 7 10 13 12 11 10 12 14 15 13 15 12 10 8 7 8 8 9 10 13 16 16 15 17 22 20 16 15 14 14 14 13 12 10 9 10 9 10 10 9 10
7 6 7 8 9 7 11 14 10 13 14 15 12 12 12 15 18 15 13 11 11 11 11 9 9 11 14 16 17 17 16 15 19 24 22 18 17 17 16 15 15 13 11 10 10 10 11 11 11
5 8 7 11 9 7 11 13 14 14 17 18 18 16 14 15 15 14 15 15 14 13 11 11 12 15 16 18 18 17 16 15 18 22 25 24 20 19 19 18 17 16 15 13 13 13 12 12 12
6 6 9 8 10 7 6 9 9 13 17 20 20 19 17 16 14 14 15 16 14 13 13 14 16 18 20 22 22 20 19 17 17 21 23 24 25 24 23 21 20 19 18 16 15 15 14 14 13
6 6 7 10 11 7 9 11 12 9 17 19 21 13 18 16 16 16 16 15 15 16 17 19 21 24 25 25 27 25 21 20 19 20 22 23 26 27 26 26 24 22 22 20 18 17 17 16 16
6 5 9 9 12 10 14 7 11 12 12 13 17 16 15 15 14 16 17 17 18 20 21 24 27 28 30 31 30 29 27 24 23 22 22 25 27 27 29 30 29 27 26 24 23 20 20 20 18
5 6 7 11 13 10 15 14 14 9 11 13 13 14 13 13 14 15 16 19 20 22 25 28 30 30 30 29 29 28 28 27 26 26 27 27 29 32 32 35 33 32 31 30 28 26 24 22 20
6 5 8 10 14 16 13 13 18 13 9 15 15 15 15 15 16 17 20 22 23 25 26 25 26 27 26 26 25 26 26 26 26 26 29 31 32 34 35 38 39 38 36 35 32 29 28 25 23
7 10 10 10 11 14 10 15 21 22 21 21 20 20 20 20 21 22 22 23 23 22 21 21 23 25 25 24 22 22 23 23 24 25 28 31 32 34 37 40 43 43 41 39 36 34 32 30 28
10 12 11 12 12 14 16 16 21 23 25 25 25 25 23 23 22 21 21 20 19 19 19 22 25 25 23 23 24 25 25 25 26 28 28 29 32 37 36 37 42 45 46 44 43 41 38 34 32
12 10 11 12 14 18 17 19 20 24 23 24 25 25 24 23 21 20 20 19 19 20 22 24 26 28 27 27 27 27 28 29 30 32 34 34 34 34 38 39 39 43 46 49 47 47 44 40 36
13 10 11 13 14 18 18 23 25 28 26 27 27 27 25 24 22 21 20 20 20 23 25 27 29 30 29 30 31 32 32 34 35 36 38 40 41 40 39 41 43 41 46 50 51 51 49 47 42
14 14 10 14 13 16 18 18 23 23 25 29 30 28 26 24 23 22 21 21 24 27 29 31 33 33 32 32 34 35 36 38 40 41 41 40 42 44 45 45 46 46 45 49 53 52 55 51 48
12 14 11 11 18 19 19 15 25 21 21 23 24 24 24 24 23 22 23 25 28 31 32 34 36 36 35 34 35 34 38 41 42 43 44 45 45 47 50 49 47 48 50 48 51 55 55 55 52
12 13 14 13 12 18 17 20 31 27 27 23 21 21 22 22 23 25 27 30 33 35 36 38 39 38 35 35 34 37 41 43 45 44 45 47 47 49 51 52 52 49 50 51 48 52 57 56 55
17 16 19 18 15 23 21 24 23 29 26 27 25 24 24 26 27 29 32 34 36 37 39 40 39 36 35 35 38 41 43 42 42 44 45 46 48 48 50 53 52 50 52 52 50 50 52 60 56
16 18 21 21 19 22 23 30 24 32 29 30 28 28 29 30 33 34 35 35 37 37 39 37 34 33 35 38 42 42 42 44 46 47 47 47 45 45 47 49 50 49 50 52 52 52 53 52 57
16 17 17 19 19 22 25 37 30 36 33 32 29 30 31 33 34 34 34 35 35 35 33 30 30 32 35 38 40 42 44 46 47 48 48 44 43 42 42 41 45 49 50 53 54 55 56 57 54
21 18 17 17 18 24 13 25 20 19 21 21 21 24 29 30 32 33 33 32 31 28 26 27 29 32 35 37 39 41 44 46 46 46 42 39 40 40 39 40 41 44 45 48 52 54 56 59 61
12 10 8 12 16 20 21 19 22 19 21 17 20 28 29 30 31 29 28 26 22 21 23 25 27 29 31 34 37 40 41 43 44 41 39 40 37 35 36 38 38 41 42 41 45 48 53 57 61
12 12 18 19 17 19 21 23 27 18 14 14 20 16 16 21 24 22 20 17 17 19 20 22 24 27 30 33 35 36 38 38 36 36 37 37 34 31 32 29 32 35 40 43 43 44 46 49 51
16 14 11 8 10 12 13 12 27 18 13 18 22 27 24 17 18 18 15 14 15 16 19 20 21 24 26 27 30 31 31 31 32 30 27 25 25 26 26 24 24 24 26 29 39 42 44 46 46
8 13 13 9 11 9 8 9 9 16 18 13 14 15 14 14 15 14 12 14 14 16 17 17 15 16 21 24 25 24 24 24 24 24 22 20 21 20 22 23 20 20 22 24 27 34 38 43 40
4 9 10 15 21 16 20 22 22 29 22 18 19 20 16 12 9 10 15 14 14 15 15 11 8 13 16 24 24 24 28 24 28 31 32 27 24 21 21 19 19 25 25 26 25 29 35 38 33
19 11 11 10 7 16 14 15 15 14 17 16 10 8 8 8 9 15 15 15 14 13 11 7 10 10 14 17 23 26 28 34 34 35 37 40 38 27 17 15 14 17 20 22 24 27 28 24 33
11 14 12 12 11 6 12 13 10 12 11 7 5 8 9 8 12 16 17 16 13 11 10 11 11 11 12 14 19 24 25 30 29 33 37 43 47 47 35 14 10 16 16 18 19 23 21 24 23
18 18 16 16 14 13 12 16 12 10 8 15 25 14 11 14 17 16 18 15 13 13 13 13 10 9 10 11 14 18 23 25 25 27 29 32 39 45 47 41 24 10 12 15 13 8 27 23 25
Wind_Direction
242 233 244 233 189 203 195 180 154 166 154 161 162 151 168 163 151 173 177 170 174 198 215 233 258 275 290 293 291 286 287 292 295 298 310 317 325 331 336 342 341 335 328 302 282 272 268 266 269
231 219 221 221 224 212 171 166 160 152 179 181 175 173 175 188 196 166 170 171 177 207 242 276 301 315 314 311 303 297 289 278 274 279 288 298 304 311 319 328 331 329 327 308 297 287 279 272 271
230 213 203 221 225 232 167 162 173 174 162 146 173 185 192 192 185 182 175 178 189 227 263 292 304 315 313 316 322 309 292 281 270 260 267 277 289 299 303 309 313 316 319 310 303 291 284 277 272
222 213 222 222 205 202 172 176 163 180 187 176 174 175 188 187 177 181 180 186 203 226 263 279 293 295 305 309 312 311 314 304 282 271 260 267 278 285 288 295 296 299 304 303 300 293 287 282 278
220 203 222 220 203 195 209 201 187 183 202 201 199 199 193 186 179 183 196 198 212 227 245 261 286 302 308 311 310 308 305 296 290 276 265 259 263 269 277 284 288 292 292 287 282 281 286 286 284
214 208 224 217 202 192 216 216 214 199 210 214 211 215 208 197 189 202 208 209 218 229 248 267 281 294 302 309 312 307 301 290 280 274 268 264 260 261 267 272 278 283 288 287 282 279 275 275 279
207 219 232 221 196 180 192 208 176 188 205 202 209 212 218 213 224 233 227 223 234 250 264 276 284 291 294 299 303 302 299 292 283 270 264 269 269 267 264 266 271 275 278 279 282 281 278 275 271
225 215 220 204 204 194 198 196 195 168 211 209 208 211 220 226 236 235 232 239 252 264 272 279 285 291 293 295 296 295 291 287 282 276 268 263 261 263 264 265 263 268 271 273 273 277 276 273 269
220 224 219 212 199 205 204 173 201 209 210 213 213 219 223 225 231 230 234 247 261 272 280 284 287 292 293 294 293 291 287 281 276 272 270 268 267 263 263 263 263 260 264 269 269 267 271 272 270
216 235 222 200 194 190 200 198 208 211 217 219 224 230 234 236 235 237 248 259 267 274 280 287 293 294 293 291 291 290 286 280 272 268 265 266 266 265 262 260 260 260 260 259 259 260 260 263 267
237 231 238 218 210 213 206 209 217 219 220 229 231 238 242 246 252 257 260 265 267 272 277 283 285 289 294 296 295 293 291 290 288 279 269 264 261 262 264 261 260 259 258 258 258 257 258 259 258
245 239 228 235 225 214 221 229 231 231 238 247 251 252 251 251 253 257 260 264 270 274 278 281 286 290 291 291 290 286 284 284 284 285 287 286 278 267 263 262 259 257 256 254 255 254 256 256 255
264 253 244 245 245 240 241 239 246 246 247 252 254 256 259 261 259 260 262 264 266 274 282 291 298 302 296 290 288 286 284 281 279 278 278 280 282 282 275 266 263 259 254 254 253 253 252 250 254
267 266 257 251 250 255 256 258 256 253 251 252 254 258 259 258 258 263 265 263 269 279 289 300 306 304 297 294 288 288 287 284 282 279 275 274 277 280 279 274 266 262 260 254 254 253 252 250 247
271 267 269 266 263 266 264 262 261 268 263 261 260 260 262 260 261 265 261 263 277 288 294 299 304 304 295 295 291 288 291 293 289 285 279 275 273 275 278 278 271 263 258 257 253 252 251 248 246
275 277 262 262 263 264 268 267 260 271 270 269 266 266 264 259 263 264 264 274 285 290 293 298 304 301 297 293 293 287 291 293 293 292 288 283 277 272 271 274 274 268 259 255 253 253 250 251 246
273 260 259 269 266 267 264 262 264 269 272 269 268 263 260 261 264 268 271 279 285 290 293 296 298 298 295 292 293 289 292 295 295 293 289 284 280 278 276 276 273 267 263 256 252 252 253 248 248
276 275 271 263 278 276 259 263 270 267 267 268 265 265 264 264 268 274 276 281 284 287 291 296 299 298 293 294 293 293 296 295 293 289 288 286 284 282 280 276 273 267 260 258 254 250 248 251 250
268 264 268 267 271 277 268 267 266 269 266 266 266 267 267 270 275 276 278 279 281 285 292 296 298 298 297 298 300 298 296 295 293 292 292 289 287 283 278 275 271 267 262 256 252 250 250 247 247
266 269 271 274 273 268 277 272 268 261 267 263 265 267 268 271 273 275 276 279 282 287 292 296 297 298 299 300 299 300 301 302 300 298 296 294 289 284 278 273 270 265 262 259 253 249 248 250 244
269 272 270 272 275 274 284 277 267 266 271 263 259 260 266 266 268 271 274 277 283 288 294 295 297 298 301 303 304 305 306 305 303 300 299 296 292 287 279 272 267 264 260 257 255 251 246 243 243
273 272 274 280 279 274 269 283 271 258 266 263 254 258 264 265 265 266 270 278 285 290 293 296 300 304 305 307 308 309 309 307 305 303 303 297 289 282 276 269 265 263 259 255 252 249 248 244 241
277 288 272 286 286 284 264 265 280 253 261 270 269 272 270 265 265 271 275 280 283 288 294 302 308 311 312 313 315 315 312 308 307 305 301 296 291 283 275 270 263 258 262 260 254 254 249 242 241
257 276 278 277 278 264 268 252 277 273 254 255 270 266 284 281 266 269 273 275 282 293 303 311 315 317 321 322 321 318 315 313 309 304 299 296 293 291 282 276 269 261 256 256 254 249 249 247 245
256 266 275 267 220 256 283 268 255 278 265 269 274 269 285 271 264 274 270 275 289 299 306 311 320 327 332 333 330 327 325 326 322 316 309 306 298 290 287 286 282 281 277 271 262 254 249 246 244
257 240 236 268 278 316 302 253 265 264 271 261 256 267 282 272 270 266 268 285 290 299 307 315 328 346 356 352 352 356 350 346 353 350 340 326 314 299 293 291 294 283 272 266 265 255 247 249 245
228 234 257 273 271 274 262 266 275 277 273 271 267 274 271 266 257 271 288 284 289 301 306 306 322 344 358 9 11 15 20 16 24 26 22 10 351 320 301 295 307 286 273 269 261 256 245 239 235
250 259 252 238 258 257 265 271 268 283 284 284 288 256 258 255 272 294 283 278 286 292 288 281 320 347 6 8 12 16 17 28 32 30 28 28 25 11 331 322 302 290 273 264 270 269 256 232 232
234 228 237 257 246 279 287 277 280 297 299 298 266 278 255 251 301 294 279 276 276 274 262 297 318 338 356 5 9 13 8 16 17 30 32 31 31 25 24 14 326 317 272 306 284 271 239 215 214
245 251 250 250 264 255 284 282 277 273 302 288 293 296 273 271 292 291 274 270 263 261 269 293 306 329 342 356 6 7 13 15 17 26 27 31 36 39 31 24 23 21 337 333 294 247 259 224 216
Height
3160 3159 3159 3159 3166 3162 3161 3163 3161 3163 3163 3162 3163 3165 3164 3164 3167 3172 3170 3170 3171 3171 3171 3171 3171 3171 3171 3172 3171 3171 3171 3170 3170 3170 3169 3169 3168 3167 3167 3166 3166 3165 3165 3165 3164 3164 3163 3163 3163
3157 3157 3158 3159 3161 3157 3159 3161 3162 3162 3161 3161 3162 3164 3164 3164 3164 3166 3168 3169 3172 3173 3172 3172 3172 3172 3172 3172 3171 3170 3169 3168 3168 3168 3168 3167 3167 3166 3165 3165 3165 3165 3164 3165 3164 3163 3162 3162 3162
3156 3155 3158 3159 3158 3154 3156 3159 3159 3159 3160 3160 3161 3162 3163 3163 3164 3165 3167 3169 3171 3172 3172 3172 3171 3170 3170 3170 3170 3168 3167 3167 3166 3165 3165 3164 3165 3165 3165 3163 3164 3163 3163 3163 3163 3162 3161 3161 3160
3154 3155 3157 3157 3155 3154 3156 3156 3157 3158 3159 3160 3161 3162 3164 3163 3164 3165 3167 3168 3169 3171 3172 3172 3170 3170 3169 3169 3168 3167 3165 3164 3164 3163 3163 3163 3163 3162 3163 3161 3161 3161 3161 3161 3161 3161 3160 3159 3159
3152 3153 3156 3154 3154 3152 3153 3154 3155 3157 3157 3159 3160 3161 3162 3162 3163 3164 3165 3166 3167 3168 3168 3169 3168 3168 3168 3166 3165 3163 3162 3161 3161 3160 3160 3160 3160 3160 3159 3159 3159 3159 3159 3158 3158 3158 3158 3158 3157
3151 3151 3153 3151 3152 3150 3151 3152 3153 3155 3155 3157 3158 3159 3161 3161 3161 3163 3163 3164 3164 3165 3165 3165 3165 3165 3165 3163 3162 3160 3159 3158 3157 3157 3157 3157 3156 3156 3156 3156 3156 3156 3156 3156 3156 3155 3154 3154 3154
3149 3151 3151 3150 3151 3150 3150 3151 3152 3153 3154 3155 3156 3157 3159 3158 3159 3159 3159 3160 3161 3162 3162 3162 3162 3162 3161 3160 3159 3158 3156 3155 3154 3153 3153 3154 3154 3153 3152 3151 3152 3152 3152 3152 3153 3152 3151 3151 3151
3147 3148 3148 3149 3149 3150 3147 3149 3150 3153 3152 3153 3153 3155 3156 3156 3157 3157 3157 3158 3159 3159 3159 3159 3158 3158 3157 3155 3154 3153 3153 3151 3150 3149 3149 3149 3148 3148 3148 3148 3147 3147 3148 3148 3148 3148 3148 3148 3148
3145 3149 3147 3147 3148 3147 3146 3148 3149 3150 3151 3152 3152 3152 3153 3154 3155 3155 3155 3156 3156 3156 3155 3154 3153 3152 3151 3150 3149 3148 3148 3147 3146 3145 3144 3144 3143 3144 3143 3143 3142 3142 3142 3144 3144 3144 3144 3143 3144
3145 3147 3146 3144 3145 3146 3145 3146 3147 3150 3149 3149 3150 3151 3152 3153 3153 3154 3154 3154 3153 3152 3151 3150 3148 3147 3146 3145 3143 3142 3141 3141 3140 3139 3139 3139 3138 3137 3138 3137 3137 3137 3137 3137 3137 3139 3138 3138 3139
3143 3146 3142 3142 3142 3143 3144 3145 3145 3147 3148 3147 3147 3149 3149 3149 3151 3151 3152 3151 3150 3149 3147 3146 3145 3144 3141 3140 3138 3136 3135 3133 3132 3132 3132 3132 3132 3131 3131 3131 3131 3131 3132 3132 3132 3133 3133 3133 3133
3142 3141 3140 3139 3140 3141 3143 3142 3142 3143 3143 3144 3145 3146 3146 3146 3147 3146 3146 3146 3146 3145 3144 3142 3141 3139 3137 3135 3133 3132 3130 3128 3127 3125 3124 3123 3123 3124 3123 3123 3123 3124 3125 3125 3126 3126 3127 3127 3126
3139 3139 3138 3137 3137 3138 3138 3139 3138 3138 3139 3140 3140 3141 3141 3142 3142 3141 3141 3141 3141 3141 3139 3138 3136 3133 3132 3130 3129 3127 3125 3123 3121 3119 3117 3116 3115 3113 3113 3114 3114 3115 3116 3117 3118 3119 3120 3121 3121
3136 3136 3136 3135 3134 3134 3134 3133 3134 3133 3134 3135 3135 3135 3136 3136 3137 3137 3137 3137 3137 3136 3135 3133 3130 3128 3126 3124 3123 3121 3119 3117 3115 3113 3110 3108 3106 3104 3103 3103 3104 3105 3106 3108 3109 3110 3111 3113 3114
3134 3134 3133 3132 3132 3131 3130 3130 3128 3128 3129 3128 3129 3130 3131 3132 3131 3131 3132 3132 3131 3130 3129 3127 3125 3123 3120 3118 3116 3113 3112 3110 3108 3105 3103 3100 3098 3096 3093 3093 3093 3094 3095 3096 3098 3099 3101 3103 3105
3133 3131 3132 3128 3128 3127 3128 3128 3122 3123 3123 3123 3123 3124 3125 3125 3126 3126 3126 3125 3124 3123 3122 3119 3117 3115 3113 3111 3108 3106 3103 3100 3098 3094 3092 3090 3087 3085 3083 3081 3081 3082 3082 3083 3085 3088 3090 3093 3096
3130 3130 3128 3128 3124 3124 3124 3124 3118 3119 3118 3118 3119 3119 3120 3120 3120 3120 3120 3119 3119 3117 3115 3113 3111 3108 3106 3103 3101 3098 3095 3091 3087 3084 3080 3078 3076 3073 3070 3069 3069 3069 3069 3070 3072 3075 3078 3082 3085
3126 3128 3126 3124 3124 3120 3119 3117 3111 3113 3112 3113 3114 3114 3115 3115 3114 3114 3113 3113 3112 3110 3108 3105 3102 3099 3097 3095 3092 3089 3086 3082 3077 3074 3070 3066 3064 3060 3057 3054 3054 3054 3054 3057 3060 3061 3065 3068 3072
3121 3121 3122 3123 3121 3115 3116 3114 3113 3106 3107 3108 3109 3109 3109 3108 3107 3107 3106 3105 3104 3102 3099 3097 3093 3091 3089 3086 3083 3080 3076 3072 3067 3063 3058 3054 3050 3048 3044 3040 3038 3040 3040 3042 3046 3048 3050 3054 3060
3117 3117 3116 3116 3115 3112 3111 3106 3109 3099 3102 3103 3104 3104 3103 3102 3101 3100 3099 3099 3097 3095 3092 3089 3086 3084 3081 3078 3074 3068 3063 3058 3053 3049 3045 3041 3037 3033 3030 3026 3023 3025 3027 3029 3032 3034 3037 3041 3048
3114 3113 3112 3112 3110 3108 3106 3095 3101 3094 3095 3096 3097 3097 3096 3095 3094 3093 3092 3091 3090 3089 3086 3084 3081 3078 3074 3069 3064 3058 3053 3047 3042 3036 3031 3027 3023 3019 3016 3013 3011 3011 3012 3015 3018 3020 3022 3025 3033
3108 3110 3107 3106 3106 3102 3103 3086 3095 3091 3089 3089 3090 3091 3090 3089 3088 3086 3085 3085 3084 3083 3081 3078 3075 3071 3066 3061 3055 3049 3043 3037 3030 3025 3020 3016 3011 3006 3003 3001 3000 2998 3001 3002 3004 3005 3007 3011 3016
3106 3103 3103 3102 3101 3097 3097 3097 3084 3086 3083 3085 3086 3085 3084 3083 3082 3082 3081 3080 3079 3078 3076 3072 3068 3064 3059 3054 3047 3040 3035 3027 3019 3014 3009 3003 2998 2995 2993 2989 2989 2990 2989 2990 2992 2994 2995 2995 2999
3102 3101 3100 3098 3097 3090 3088 3089 3074 3080 3080 3080 3079 3079 3078 3077 3077 3077 3076 3075 3074 3073 3071 3067 3063 3058 3052 3046 3040 3034 3027 3020 3013 3006 2999 2993 2988 2984 2982 2980 2978 2978 2977 2976 2976 2979 2982 2985 2987
3098 3099 3095 3090 3086 3082 3080 3081 3077 3075 3077 3076 3076 3074 3073 3072 3073 3073 3072 3071 3070 3069 3067 3064 3059 3053 3048 3042 3036 3030 3023 3014 3005 2998 2991 2986 2982 2978 2974 2971 2969 2966 2966 2966 2967 2968 2971 2973 2975
3094 3094 3092 3083 3075 3076 3078 3074 3071 3071 3070 3070 3069 3069 3068 3068 3068 3069 3069 3068 3066 3066 3064 3060 3056 3051 3046 3041 3034 3028 3020 3012 3003 2995 2987 2981 2976 2972 2969 2965 2960 2958 2958 2958 2958 2957 2959 2963 2967
3090 3090 3090 3086 3084 3081 3074 3071 3070 3067 3066 3066 3065 3065 3065 3065 3065 3066 3065 3064 3062 3061 3059 3057 3054 3049 3044 3039 3033 3027 3019 3011 3001 2993 2985 2976 2969 2964 2960 2957 2952 2952 2950 2950 2949 2949 2949 2953 2956
3086 3087 3086 3084 3078 3068 3064 3062 3064 3063 3063 3062 3061 3061 3062 3062 3063 3063 3061 3059 3058 3057 3056 3054 3050 3046 3041 3038 3033 3026 3018 3011 3002 2994 2987 2977 2970 2962 2956 2953 2950 2947 2946 2945 2944 2943 2943 2946 2948
3081 3080 3081 3080 3076 3069 3063 3058 3060 3061 3060 3058 3059 3059 3059 3059 3059 3059 3057 3055 3054 3053 3052 3050 3047 3043 3039 3035 3031 3025 3019 3013 3005 2997 2989 2980 2972 2962 2956 2950 2948 2944 2942 2941 2935 2937 2938 2941 2943
3076 3075 3074 3073 3070 3068 3067 3058 3058 3057 3057 3058 3057 3056 3055 3055 3054 3053 3053 3051 3051 3050 3048 3046 3044 3040 3038 3034 3029 3025 3019 3014 3009 3001 2994 2986 2978 2970 2961 2950 2944 2941 2939 2935 2935 2935 2935 2937 2941